FW9258 Weather Reports


Display with metric or nautical units.
time (UTC)temp
F
wind
direction
speed
MPH
gust
MPH
rain 1hr
in
rain 24hr
in
rain mn
in
humidity
%
barometer
mb
20260507062523 49 269 2.0 8.0 0.00 0.00 0.00 87 1015.0
20260507062018 49 31 4.0 11.0 0.00 0.00 0.00 87 1015.0
20260507061534 48 34 4.0 11.0 0.00 0.00 0.00 87 1015.0
20260507061018 48 219 4.0 11.0 0.00 0.00 0.00 87 1015.0
20260507060517 48 122 3.0 8.0 0.00 0.00 0.00 87 1014.9
20260507060048 48 279 3.0 7.0 0.00 0.00 0.00 87 1014.9
20260507055520 48 311 2.0 11.0 0.00 0.00 0.00 87 1014.9
20260507055017 48 314 2.0 11.0 0.00 0.00 0.00 87 1015.0
20260507054545 48 17 4.0 11.0 0.00 0.00 0.00 87 1015.0
20260507054017 48 41 5.0 10.0 0.00 0.00 0.00 87 1014.9
20260507053519 48 268 3.0 10.0 0.00 0.00 0.00 87 1015.0
20260507053034 48 136 5.0 10.0 0.00 0.00 0.00 87 1014.9
20260507052520 48 8 3.0 10.0 0.00 0.00 0.00 87 1014.9
20260507052019 47 93 6.0 9.0 0.00 0.00 0.00 87 1014.8
20260507051535 47 100 3.0 9.0 0.00 0.00 0.00 87 1014.9
20260507051017 47 260 3.0 10.0 0.00 0.00 0.00 87 1014.8
20260507050515 47 132 5.0 10.0 0.00 0.00 0.00 87 1014.9
20260507050034 47 118 5.0 10.0 0.00 0.00 0.00 87 1014.7
20260507045515 47 133 6.0 10.0 0.00 0.00 0.00 87 1014.7
20260507045016 47 309 4.0 9.0 0.00 0.00 0.00 87 1014.7
20260507044547 47 148 3.0 9.0 0.00 0.00 0.00 87 1014.7
20260507044017 48 120 4.0 10.0 0.00 0.00 0.00 87 1014.6
20260507043518 48 319 4.0 10.0 0.00 0.00 0.00 86 1014.6
20260507043032 48 114 5.0 9.0 0.00 0.00 0.00 86 1014.5
20260507042516 48 115 5.0 10.0 0.00 0.00 0.00 86 1014.5
20260507042015 48 88 4.0 12.0 0.00 0.00 0.00 85 1014.5
20260507041536 48 128 7.0 12.0 0.00 0.00 0.00 85 1014.5
20260507041018 48 111 5.0 10.0 0.00 0.00 0.00 85 1014.5
20260507040517 48 114 4.0 11.0 0.00 0.00 0.00 85 1014.4
20260507040036 48 148 6.0 11.0 0.00 0.00 0.00 85 1014.5
20260507035519 48 119 3.0 7.0 0.00 0.00 0.00 85 1014.4
20260507035019 48 43 3.0 11.0 0.00 0.00 0.00 84 1014.5
20260507034538 49 337 3.0 11.0 0.00 0.00 0.00 84 1014.4
20260507034015 49 120 5.0 10.0 0.00 0.00 0.00 84 1014.4
20260507033515 49 116 5.0 9.0 0.00 0.00 0.00 84 1014.5
20260507033035 49 108 4.0 9.0 0.00 0.00 0.00 83 1014.5
20260507032514 48 110 3.0 6.0 0.00 0.00 0.00 83 1014.5
20260507032014 49 49 3.0 6.0 0.00 0.00 0.00 83 1014.6
20260507031533 49 131 3.0 8.0 0.00 0.00 0.00 83 1014.6
20260507031017 49 334 4.0 8.0 0.00 0.00 0.00 82 1014.5
20260507030518 49 119 4.0 10.0 0.00 0.00 0.00 82 1014.6
20260507030031 49 345 3.0 10.0 0.00 0.00 0.00 82 1014.6
20260507025515 49 123 6.0 10.0 0.00 0.00 0.00 82 1014.7
20260507025015 49 108 5.0 9.0 0.00 0.00 0.00 82 1014.6
20260507024535 49 108 6.0 9.0 0.00 0.00 0.00 83 1014.7
20260507024014 49 25 5.0 9.0 0.00 0.00 0.00 85 1014.7
20260507023516 49 126 4.0 9.0 0.00 0.00 0.00 88 1014.7
20260507023032 49 338 2.0 4.0 0.00 0.00 0.00 88 1014.6
20260507022520 49 110 1.0 3.0 0.00 0.00 0.00 88 1014.7
20260507022016 49 353 1.0 2.0 0.00 0.00 0.00 88 1014.7
20260507021532 49 321 0.0 1.0 0.00 0.00 0.00 88 1014.7
20260507021020 49 0 0.0 1.0 0.00 0.00 0.00 87 1014.7
20260507020516 49 0 0.0 0.0 0.00 0.00 0.00 87 1014.7
20260507020043 49 0 0.0 1.0 0.00 0.00 0.00 87 1014.7
20260507015517 49 0 0.0 1.0 0.00 0.00 0.00 87 1014.7
20260507015015 49 0 0.0 0.0 0.00 0.00 0.00 86 1014.7
20260507014535 49 0 0.0 0.0 0.00 0.00 0.00 86 1014.7
20260507014018 49 0 0.0 0.0 0.00 0.00 0.00 86 1014.8
20260507013514 49 0 0.0 1.0 0.00 0.00 0.00 86 1014.8
20260507013036 49 0 0.0 1.0 0.00 0.00 0.00 85 1014.8
20260507012517 49 332 0.0 2.0 0.00 0.00 0.00 85 1014.8
20260507012018 49 0 0.0 2.0 0.00 0.00 0.00 85 1014.8
20260507011535 49 0 0.0 2.0 0.00 0.00 0.00 84 1014.8
20260507011020 49 0 1.0 2.0 0.00 0.00 0.00 84 1014.9
20260507010517 49 332 0.0 1.0 0.00 0.00 0.00 84 1014.7
20260507010040 49 332 0.0 2.0 0.00 0.00 0.00 84 1014.8
20260507005515 49 0 0.0 2.0 0.00 0.00 0.00 84 1014.8
20260507005018 49 338 0.0 2.0 0.00 0.00 0.00 84 1014.8
20260507004534 49 0 0.0 1.0 0.00 0.00 0.00 84 1014.8
20260507004018 49 0 0.0 1.0 0.00 0.00 0.00 83 1014.9
20260507003516 49 331 0.0 2.0 0.00 0.00 0.00 83 1014.9
20260507003039 49 0 0.0 2.0 0.00 0.00 0.00 83 1014.9
20260507002515 49 326 0.0 1.0 0.00 0.00 0.00 83 1015.0
20260507002018 49 333 0.0 2.0 0.00 0.00 0.00 83 1014.9
20260507001540 49 333 0.0 2.0 0.00 0.00 0.00 82 1015.0
20260507001015 49 333 1.0 2.0 0.00 0.00 0.00 82 1015.0
20260507000519 49 332 0.0 2.0 0.00 0.00 0.00 82 1015.0
20260507000035 49 330 1.0 2.0 0.00 0.00 0.00 82 1015.0
20260506235515 49 333 0.0 2.0 0.00 0.00 0.00 82 1015.0
20260506235015 49 0 0.0 2.0 0.00 0.00 0.00 81 1015.1
20260506234536 49 333 0.0 2.0 0.00 0.00 0.00 81 1014.9
20260506234016 49 333 0.0 3.0 0.00 0.00 0.00 81 1015.0
20260506233516 49 331 0.0 3.0 0.00 0.00 0.00 81 1015.0
20260506233036 49 0 1.0 3.0 0.00 0.00 0.00 81 1015.0
20260506232515 49 333 0.0 2.0 0.00 0.00 0.00 81 1014.9
20260506232018 49 0 0.0 2.0 0.00 0.00 0.00 80 1015.0
20260506231531 49 336 0.0 2.0 0.00 0.00 0.00 80 1015.0
20260506231015 49 330 0.0 2.0 0.00 0.00 0.00 80 1015.1
20260506230519 49 330 0.0 2.0 0.00 0.00 0.00 80 1015.0
20260506230033 49 333 1.0 2.0 0.00 0.00 0.00 80 1015.0
20260506225517 49 338 0.0 2.0 0.00 0.00 0.00 81 1015.0
20260506225016 49 334 0.0 2.0 0.00 0.00 0.00 81 1015.0
20260506224532 49 333 0.0 2.0 0.00 0.00 0.00 81 1015.1
20260506224015 49 334 0.0 2.0 0.00 0.00 0.00 81 1015.1
20260506223515 49 334 0.0 3.0 0.00 0.00 0.00 81 1015.0
20260506223030 49 347 1.0 3.0 0.00 0.00 0.00 81 1015.0
20260506222518 49 349 1.0 3.0 0.00 0.00 0.00 81 1015.0
20260506222014 49 333 2.0 3.0 0.00 0.00 0.00 81 1015.0
20260506221531 49 340 2.0 3.0 0.00 0.00 0.00 82 1015.0
20260506221015 49 329 1.0 3.0 0.00 0.00 0.00 82 1015.1
20260506220515 49 333 1.0 3.0 0.00 0.00 0.00 83 1015.0
20260506220037 49 339 1.0 3.0 0.00 0.00 0.00 83 1014.9
20260506215515 49 329 1.0 4.0 0.00 0.00 0.00 83 1014.9
20260506215016 49 350 1.0 4.0 0.00 0.00 0.00 82 1015.0
20260506214533 49 336 1.0 4.0 0.00 0.00 0.00 82 1015.0
20260506214017 49 338 2.0 5.0 0.00 0.00 0.00 82 1015.0
20260506213515 49 348 2.0 5.0 0.00 0.00 0.00 83 1015.0
20260506213030 49 335 3.0 4.0 0.00 0.00 0.00 83 1014.9
20260506212517 49 349 2.0 4.0 0.00 0.00 0.00 83 1015.0
20260506212016 49 338 1.0 3.0 0.00 0.00 0.00 83 1015.1
20260506211533 49 337 2.0 3.0 0.00 0.00 0.00 83 1015.0
20260506211016 49 340 2.0 4.0 0.00 0.00 0.00 83 1015.1
20260506210516 49 338 1.0 4.0 0.00 0.00 0.00 83 1015.1
20260506210039 49 335 1.0 3.0 0.00 0.00 0.00 82 1015.0
20260506205515 49 333 1.0 4.0 0.00 0.00 0.00 82 1015.0
20260506205021 50 336 2.0 5.0 0.00 0.00 0.00 82 1015.0
20260506204531 50 339 2.0 5.0 0.00 0.00 0.00 82 1015.0
20260506204016 50 359 1.0 4.0 0.00 0.00 0.00 82 1015.0
20260506203516 50 336 1.0 2.0 0.00 0.00 0.00 81 1015.0
20260506203035 50 335 1.0 2.0 0.00 0.00 0.00 81 1014.9
20260506202516 50 329 1.0 3.0 0.00 0.00 0.00 81 1014.8
20260506202018 50 337 1.0 3.0 0.00 0.00 0.00 80 1014.9
20260506201532 50 336 0.0 3.0 0.00 0.00 0.00 79 1014.8
20260506201015 50 327 0.0 2.0 0.00 0.00 0.00 79 1014.9
20260506200520 50 331 0.0 4.0 0.00 0.00 0.00 79 1014.8
20260506200036 50 331 2.0 4.0 0.00 0.00 0.00 78 1014.8
20260506195516 50 336 1.0 3.0 0.00 0.00 0.00 75 1014.7
20260506195016 50 335 1.0 3.0 0.00 0.00 0.00 74 1014.7
20260506194539 50 339 1.0 3.0 0.00 0.00 0.00 73 1014.7
20260506194016 50 340 1.0 3.0 0.00 0.00 0.00 73 1014.7
20260506193517 51 336 1.0 2.0 0.00 0.00 0.00 72 1014.7
20260506193035 51 335 1.0 2.0 0.00 0.00 0.00 72 1014.6
20260506192515 51 334 1.0 2.0 0.00 0.00 0.00 71 1014.6
20260506192016 51 334 1.0 2.0 0.00 0.00 0.00 71 1014.6
20260506191536 52 334 1.0 2.0 0.00 0.00 0.00 71 1014.6
20260506191015 51 334 1.0 2.0 0.00 0.00 0.00 71 1014.6
20260506190514 51 333 1.0 2.0 0.00 0.00 0.00 73 1014.6
20260506190032 51 333 1.0 2.0 0.00 0.00 0.00 73 1014.7
20260506185515 51 330 1.0 2.0 0.00 0.00 0.00 73 1014.7
20260506185017 51 322 0.0 1.0 0.00 0.00 0.00 73 1014.7
20260506184536 51 0 0.0 1.0 0.00 0.00 0.00 72 1014.7
20260506184015 51 322 0.0 2.0 0.00 0.00 0.00 71 1014.7
20260506183518 51 0 0.0 2.0 0.00 0.00 0.00 69 1014.7
20260506183033 51 316 1.0 2.0 0.00 0.00 0.00 69 1014.7
20260506182515 51 317 1.0 2.0 0.00 0.00 0.00 69 1014.7
20260506182015 52 318 1.0 2.0 0.00 0.00 0.00 68 1014.7
20260506181536 52 319 0.0 4.0 0.00 0.00 0.00 67 1014.7
20260506181016 52 333 0.0 5.0 0.00 0.00 0.00 70 1014.7
20260506180516 52 314 2.0 5.0 0.00 0.00 0.00 69 1014.7
20260506180042 52 313 2.0 7.0 0.00 0.00 0.00 69 1014.6
20260506175518 52 311 3.0 7.0 0.00 0.00 0.00 70 1014.6
20260506175016 52 324 4.0 7.0 0.00 0.00 0.00 70 1014.5
20260506174535 52 315 4.0 6.0 0.00 0.00 0.00 72 1014.6
20260506174017 53 295 2.0 3.0 0.00 0.00 0.00 72 1014.5
20260506173521 53 309 0.0 4.0 0.00 0.00 0.00 67 1014.5
20260506173037 53 305 2.0 4.0 0.00 0.00 0.00 66 1014.5
20260506172518 53 306 2.0 5.0 0.00 0.00 0.00 72 1014.5
20260506172018 53 302 2.0 5.0 0.00 0.00 0.00 72 1014.6
20260506171550 53 301 2.0 5.0 0.00 0.00 0.00 70 1014.5
20260506171018 53 300 1.0 3.0 0.00 0.00 0.00 67 1014.6
20260506170515 54 0 0.0 1.0 0.00 0.00 0.00 66 1014.5
20260506170039 54 326 0.0 0.0 0.00 0.00 0.00 62 1014.5
20260506165516 54 0 0.0 0.0 0.00 0.00 0.00 61 1014.5
20260506165016 54 0 0.0 0.0 0.00 0.00 0.00 61 1014.5
20260506164534 55 0 0.0 0.0 0.00 0.00 0.00 63 1014.6
20260506164015 54 0 0.0 0.0 0.00 0.00 0.00 60 1014.5
20260506163515 54 0 0.0 1.0 0.00 0.00 0.00 62 1014.5
20260506163038 54 0 0.0 2.0 0.00 0.00 0.00 59 1014.5
20260506162516 54 305 0.0 2.0 0.00 0.00 0.00 62 1014.4
20260506162015 54 307 0.0 3.0 0.00 0.00 0.00 62 1014.5
20260506161532 54 0 0.0 4.0 0.00 0.00 0.00 66 1014.5
20260506161016 55 298 1.0 4.0 0.00 0.00 0.00 66 1014.5
20260506160515 55 323 1.0 5.0 0.00 0.00 0.00 66 1014.5
20260506160034 55 319 2.0 5.0 0.00 0.00 0.00 63 1014.5
20260506155515 55 302 2.0 5.0 0.00 0.00 0.00 63 1014.4
20260506155016 55 233 2.0 5.0 0.00 0.00 0.00 67 1014.5
20260506154533 55 333 3.0 6.0 0.00 0.00 0.00 65 1014.5
20260506154016 55 198 3.0 6.0 0.00 0.00 0.00 68 1014.5
20260506153516 54 35 3.0 6.0 0.00 0.00 0.00 67 1014.5
20260506153032 54 329 3.0 7.0 0.00 0.00 0.00 67 1014.6
20260506152514 55 325 3.0 8.0 0.00 0.00 0.00 68 1014.6
20260506152016 55 36 3.0 8.0 0.00 0.00 0.00 64 1014.6
20260506151536 55 189 4.0 7.0 0.00 0.00 0.00 66 1014.6
20260506151019 55 169 3.0 6.0 0.00 0.00 0.00 66 1014.6
20260506150515 55 16 4.0 6.0 0.00 0.00 0.00 63 1014.7
20260506150030 55 100 4.0 7.0 0.00 0.00 0.00 66 1014.6
20260506145519 55 195 3.0 8.0 0.00 0.00 0.00 66 1014.6
20260506145015 55 253 5.0 8.0 0.00 0.00 0.00 65 1014.6
20260506144536 55 42 3.0 10.0 0.00 0.00 0.00 66 1014.7
20260506144020 56 139 4.0 10.0 0.00 0.00 0.00 65 1014.7
20260506143515 55 31 4.0 9.0 0.00 0.00 0.00 68 1014.8
20260506143033 55 91 4.0 9.0 0.00 0.00 0.00 67 1014.8
20260506142518 55 110 5.0 9.0 0.00 0.00 0.00 67 1014.9
20260506142015 55 115 5.0 9.0 0.00 0.00 0.00 66 1014.8
20260506141532 55 155 5.0 9.0 0.00 0.00 0.00 69 1014.8
20260506141017 55 269 4.0 8.0 0.00 0.00 0.00 68 1014.9
20260506140518 54 226 3.0 8.0 0.00 0.00 0.00 72 1014.9
20260506140032 54 328 5.0 9.0 0.00 0.00 0.00 72 1014.8
20260506135516 54 326 5.0 9.0 0.00 0.00 0.00 72 1014.9
20260506135015 54 351 4.0 8.0 0.00 0.00 0.00 73 1015.0
20260506134530 54 57 4.0 8.0 0.00 0.00 0.00 71 1015.1
20260506134017 55 89 5.0 9.0 0.00 0.00 0.00 72 1015.1
20260506133514 54 226 5.0 9.0 0.00 0.00 0.00 72 1015.1
20260506133043 54 116 5.0 9.0 0.00 0.00 0.00 71 1015.2
20260506132515 54 190 4.0 10.0 0.00 0.00 0.00 73 1015.3
20260506132015 54 146 5.0 10.0 0.00 0.00 0.00 71 1015.2
20260506131535 54 86 5.0 10.0 0.00 0.00 0.00 71 1015.3
20260506131015 54 172 3.0 9.0 0.00 0.00 0.00 71 1015.2
20260506130517 54 72 5.0 9.0 0.00 0.00 0.00 72 1015.3
20260506130032 54 269 5.0 9.0 0.00 0.00 0.00 72 1015.2
20260506125516 54 136 4.0 9.0 0.00 0.00 0.00 72 1015.2
20260506125014 54 76 5.0 9.0 0.00 0.00 0.00 72 1015.3
20260506124532 54 315 4.0 9.0 0.00 0.00 0.00 72 1015.3
20260506124014 54 349 4.0 10.0 0.00 0.00 0.00 72 1015.2
20260506123516 54 106 4.0 10.0 0.00 0.00 0.00 73 1015.2
20260506123032 54 114 5.0 11.0 0.00 0.00 0.00 73 1015.2
20260506122515 54 83 4.0 11.0 0.00 0.00 0.00 73 1015.2
20260506122015 55 114 5.0 9.0 0.00 0.00 0.00 72 1015.3
20260506121533 55 267 4.0 9.0 0.00 0.00 0.00 72 1015.2
20260506121019 56 209 5.0 9.0 0.00 0.00 0.00 73 1015.2
20260506120515 56 127 5.0 9.0 0.00 0.00 0.00 71 1015.1
20260506120037 56 146 3.0 8.0 0.00 0.00 0.00 73 1015.2
20260506115519 56 122 4.0 7.0 0.00 0.00 0.00 73 1015.2
20260506115016 54 136 3.0 8.0 0.00 0.00 0.00 75 1015.2
20260506114530 53 295 3.0 8.0 0.00 0.00 0.00 74 1015.1
20260506114021 52 113 5.0 8.0 0.00 0.00 0.00 74 1015.1
20260506113515 52 126 4.0 7.0 0.00 0.00 0.00 74 1015.1
20260506113045 52 79 3.0 7.0 0.00 0.00 0.00 74 1015.1
20260506112516 52 13 2.0 7.0 0.00 0.00 0.00 73 1015.2
20260506112015 52 113 3.0 9.0 0.00 0.00 0.00 73 1015.3
20260506111530 52 326 4.0 9.0 0.00 0.00 0.00 73 1015.3
20260506111015 52 96 2.0 8.0 0.00 0.00 0.00 75 1015.2
20260506110518 51 310 4.0 8.0 0.00 0.00 0.00 72 1015.3
20260506110035 51 304 2.0 8.0 0.00 0.00 0.00 74 1015.4
20260506105515 51 78 4.0 9.0 0.00 0.00 0.00 74 1015.3
20260506105015 51 105 5.0 10.0 0.00 0.00 0.00 72 1015.4
20260506104537 51 114 5.0 10.0 0.00 0.00 0.00 72 1015.3
20260506104015 51 130 5.0 10.0 0.00 0.00 0.00 71 1015.3
20260506103515 50 119 5.0 9.0 0.00 0.00 0.00 74 1015.4
20260506103036 50 107 6.0 9.0 0.00 0.00 0.00 72 1015.3
20260506102515 50 120 6.0 9.0 0.00 0.00 0.00 72 1015.4
20260506102017 50 97 5.0 9.0 0.00 0.00 0.00 74 1015.4
20260506101544 49 118 5.0 11.0 0.00 0.00 0.00 74 1015.3
20260506101019 49 137 6.0 11.0 0.00 0.00 0.00 74 1015.3
20260506100515 49 6 5.0 10.0 0.00 0.00 0.00 77 1015.4
20260506100033 49 115 6.0 10.0 0.00 0.00 0.00 77 1015.4
20260506095520 49 124 7.0 11.0 0.00 0.00 0.00 75 1015.3
20260506095016 49 110 7.0 11.0 0.00 0.00 0.00 76 1015.4
20260506094533 49 122 7.0 11.0 0.00 0.00 0.00 76 1015.4
20260506094016 49 119 6.0 11.0 0.00 0.00 0.00 77 1015.3
20260506093515 50 123 6.0 12.0 0.00 0.00 0.00 77 1015.3
20260506093033 50 113 8.0 12.0 0.00 0.00 0.00 77 1015.3
20260506092515 51 115 7.0 10.0 0.00 0.00 0.00 78 1015.3
20260506092017 52 15 5.0 9.0 0.00 0.00 0.00 80 1015.3
20260506091532 52 96 5.0 9.0 0.00 0.00 0.00 79 1015.1
20260506091014 52 309 1.0 8.0 0.00 0.00 0.00 81 1015.1
20260506090514 51 120 4.0 8.0 0.00 0.00 0.00 81 1015.1
20260506090032 51 117 3.0 8.0 0.00 0.00 0.00 81 1015.1
20260506085514 50 110 3.0 6.0 0.00 0.00 0.00 81 1015.2
20260506085015 50 105 3.0 8.0 0.00 0.00 0.00 81 1015.1
20260506084538 50 0 4.0 8.0 0.00 0.00 0.00 80 1015.2
20260506084016 51 91 1.0 9.0 0.00 0.00 0.00 81 1015.2
20260506083519 51 307 1.0 9.0 0.00 0.00 0.00 83 1015.1
20260506083034 51 110 4.0 6.0 0.00 0.00 0.00 83 1015.1
20260506082515 50 321 1.0 4.0 0.00 0.00 0.00 83 1015.2
20260506082016 50 310 0.0 5.0 0.00 0.00 0.00 83 1015.1
20260506081535 50 304 1.0 5.0 0.00 0.00 0.00 82 1015.0
20260506081021 50 309 2.0 5.0 0.00 0.00 0.00 82 1015.1
20260506080517 51 326 0.0 6.0 0.00 0.00 0.00 82 1015.0
20260506073037 49 338 0.0 1.0 0.00 0.00 0.00 84 1014.9
20260506072516 49 0 0.0 2.0 0.00 0.00 0.00 84 1015.0
20260506072019 49 0 0.0 3.0 0.00 0.00 0.00 85 1014.9
20260506071534 48 0 0.0 3.0 0.00 0.00 0.00 85 1014.9
20260506071015 48 340 0.0 5.0 0.00 0.00 0.00 85 1014.8
20260506070515 48 0 1.0 5.0 0.00 0.00 0.00 84 1014.8